DECAYED

FENGYUN 1C DEB, 37470 (Decayed)

Orbit data source: Space-Track

FENGYUN 1C DEB, 37470 was space debris in SSO originally from a launch on Mon, 10 May 1999 UTC launched from the Taiyaun Space Center, China (TSC). Fengyun 1C debris stems from the Chinese weather satellite Fengyun-1C, which was intentionally destroyed by a Chinese anti-satellite missile in 2007. This event dramatically increased the amount of space debris, with thousands of trackable fragments posing hazards to satellites and human spaceflight. The Fengyun 1C debris cloud has become a focal point in discussions about space sustainability and the need for international regulations to prevent the creation of new debris.

Not visible in the next 10 days
Identifier
37470, 1999-025EJQ
Orbit
Decayed
Country
Flag of CNCN / PRC
Related business
Manufacturer
Unknown
Mission
Decayed spacecraft
Bus & Motor
Unknown
Mass
Unknown
Launch date (UTC)
1999-05-10 (27 years ago)
Launch vehicle
Unknown
Launch site
Taiyaun Space Center, China (TSC)
Object type
Payload
Rocket body
Debris
Shape & HBR
Unknown shape, 0.1 m
Radar Cross Section
Small (<0.1 m²)

Expand to show TLE details & history
Last TLE update: 5 months ago

TLE from 5 months ago
0 FENGYUN 1C DEB
1 37470U 99025EJQ 26092.89414915  .00574497  00000-0  15179-1 0  9996
2 37470  98.6657 256.6791 0010412 275.2324  84.7728 15.36033120671445
Epoch: 2026-04-02T21:27Z
TLE epoch observation values (Epoch: 2026-04-02T21:27:34.486Z)
Latitude
Longitude
103.54932°
Altitude
460.285 km
Speed
7.637 km/s
True Right ascension
17h 06m 42s
True Declination
0° 00' 00"
Sunlit
Object was in full shadow at epoch
Visualization orbit readout
Latitude
Unknown
Longitude
Unknown
Altitude
Unknown
Speed
Unknown
Apparent Right ascension
Unknown
Apparent Declination
Unknown
Sunlit
N/A
Visualization observer readout
Local Sidereal Time
03:58:20
Azimuth
Unknown
Elevation
Unknown
Doppler factor
Unknown
Orbital elements
Apogee altitude
461.971 km
Perigee altitude
447.742 km
Semi-major axis
6,832.994 km
Eccentricity
0.00104
Inclination
98.6657°
RAAN
256.6791°
Arg. of periapsis
275.2324°
True anomaly
84.89163°
Mean anomaly
84.7728°
Eccentric anomaly
84.83221°
Mean motion
3.84261 °/min
Orbital period
93.69 mins
BSTAR
0.015179
Loading maneuver chart data...
Computing Atmospheric mass density...

Documentation

Showing up to 5 results
|